Location: Starlight Observatory
(38.4029°N, 85.8936°W)
Time: 23:41:41
(UTC-04:00)

Daily predictions for brighter satellites

Satellite Brightness Start Highest point End
(mag) Time Altitude Azimuth Time Altitude Azimuth Time Altitude Azimuth
Meteor 2-5 Rocket 4.4 21:36:00 10° SSW 21:41:46 63° W 21:47:26 10° N
Cosmos 2237 Rocket 2.3 21:36:35 10° NNW 21:42:14 81° WSW 21:47:50 10° SSE
NOSS 3-4 (A) 4.0 21:35:18 10° NNW 21:42:24 76° ENE 21:49:58 10° SE
NOSS 3-4 (C) 4.0 21:35:23 10° NNW 21:42:30 75° ENE 21:50:03 10° SE
Meteor 2-15 4.4 21:37:53 10° S 21:43:53 72° E 21:49:56 10° NNE
SL-8 R/B 4.3 21:39:47 10° WNW 21:44:23 49° SW 21:48:58 10° SSE
USA 186 2.6 21:45:14 10° SSW 21:47:25 33° W 21:49:32 10° NNW
Spot 2 Rocket 4.3 21:42:51 10° S 21:47:45 51° W 21:52:41 10° NNW
Resurs 01 Rocket 3.2 21:48:15 10° SSW 21:52:17 35° W 21:56:21 10° NNW
Cosmos 2227 Rocket 3.3 21:49:51 10° SW 21:55:18 49° WNW 22:00:48 10° NNE
Cosmos 1674 3.5 21:56:08 10° SSE 21:59:31 32° E 22:02:54 10° NNE
Atlas Centaur 2 2.5 21:58:25 10° WSW 22:01:15 21° S 22:03:34 12° SE
H-2A ROCKET BODY 3.6 22:00:01 10° SSE 22:01:30 11° SE 22:03:32 10° ESE
Aureole 2 Rocket 4.3 21:58:07 10° NW 22:01:47 34° WSW 22:05:14 10° SSW
Cosmos 2084 3.2 21:58:17 10° SSW 22:02:18 64° ESE 22:06:09 10° NE
Meteor 1-24 Rocket 4.2 21:57:13 10° SSW 22:03:08 68° W 22:08:53 10° N
Helios 1B rocket 2.5 21:59:31 10° N 22:03:40 83° WNW 22:07:47 10° SSW
Cosmos 1908 4.0 22:01:37 10° NNE 22:05:12 34° ENE 22:08:10 13° SE
In-Cosmos 22 4.3 22:00:07 10° S 22:05:48 88° W 22:11:37 10° N
ARGOS 4.2 22:01:30 11° SE 22:06:01 31° ENE 22:10:44 10° N
Cosmos 2100 Rocket 4.4 21:59:56 10° N 22:06:02 48° E 22:11:59 11° SSE
SL-16 R/B 2.3 22:00:49 10° NNW 22:06:29 67° ENE 22:11:44 12° SSE
Helios 1A 3.2 22:03:07 10° S 22:07:15 72° WSW 22:11:24 10° NNW
SAR-Lupe-4 3.5 22:08:12 10° SSE 22:11:46 88° WSW 22:15:22 10° NNW
Envisat 3.8 22:07:23 10° S 22:12:19 51° W 22:17:16 10° NNW
Meteor 1-29 3.1 22:09:06 10° N 22:12:32 75° WNW 22:15:58 10° SSW
Cosmos 2173 Rocket 4.2 22:11:34 10° N 22:17:35 53° E 22:23:00 13° SSE
Cosmos 2208 Rocket 4.3 22:12:20 10° N 22:17:36 58° ENE 22:21:57 15° SE
Cosmos 2333 Rocket 4.4 22:24:14 10° NW 22:28:21 21° W 22:32:27 10° SSW
SPOT 1/Viking Rocket 4.5 22:25:32 17° ESE 22:28:48 32° ENE 22:33:20 10° N
Cosmos 1570 Rocket 4.0 22:25:31 10° NNW 22:30:51 85° ENE 22:34:58 17° SSE
CZ-4B DEB 4.1 22:29:09 10° SSW 22:31:52 33° W 22:34:36 10° NNW
Cosmos 1242 Rocket 2.5 22:28:48 10° N 22:32:31 71° E 22:34:53 21° SSE
Cosmos 1356 Rocket 3.4 22:29:49 10° S 22:34:02 87° E 22:38:21 10° N
NOAA 11 4.1 22:31:28 15° SSE 22:36:05 84° ENE 22:41:33 10° NNW
Cosmos 1802 Rocket 4.0 22:33:09 10° N 22:39:17 69° E 22:43:58 18° SSE
Cosmos 2227 4.2 22:34:18 10° S 22:39:58 67° ESE 22:45:38 10° NNE
Meteor 2-17 Rocket 4.4 22:34:26 10° N 22:40:38 87° E 22:45:53 15° S
SPOT 5 3.1 22:37:41 21° SE 22:40:45 57° ENE 22:45:42 10° N
Cosmos 1408 Rocket 3.4 22:39:20 16° S 22:42:42 69° E 22:47:00 10° NNE
Lacrosse 5 2.8 22:38:36 10° NNW 22:43:21 39° NE 22:46:42 18° E
Cosmos 371 Rocket 4.4 22:39:14 10° N 22:43:28 30° ENE 22:45:45 20° ESE
Cosmos 1076 Rocket 3.8 22:39:21 10° SSW 22:43:41 69° W 22:48:03 10° N
Cosmos 1867 4.0 22:40:40 10° SW 22:46:03 64° WNW 22:51:30 10° NNE
OAO 1 Rocket 4.5 22:44:24 10° WSW 22:49:40 58° S 22:53:31 18° E
Tiangong 1 2.6 22:50:30 10° WNW 22:53:03 31° N 22:55:09 13° ENE
Abrixas rocket 4.4 22:51:56 10° NW 22:54:31 21° NNE 22:56:48 11° ENE
RESURS DK-1 2.8 22:52:31 10° NNW 22:56:35 48° ENE 22:58:06 32° ESE
Cosmos 2221 3.9 22:54:05 10° NNW 22:58:07 37° W 23:02:03 11° SSW
MetOp-B 4.4 22:56:12 19° S 23:00:08 68° WSW 23:05:29 10° NNW
USA 234 3.2 22:54:44 10° NE 23:01:18 90° NNE 23:07:51 10° SW
Cosmos 468 Rocket 4.0 22:56:19 10° NNW 23:01:27 70° ENE 23:03:53 31° SSE
EO 1 Delta rocket 3.9 22:59:48 29° SSE 23:02:07 64° ENE 23:06:41 10° N
Cosmos 1500 Rocket 4.2 23:01:39 32° SE 23:02:47 38° E 23:06:55 10° NNE
Cosmos 2151 3.9 23:02:31 30° ESE 23:03:09 31° E 23:06:56 10° NNE
SL-14 R/B 3.3 23:02:08 36° SSE 23:03:31 61° E 23:07:26 10° NNE
Meteor 2-2 Rocket 4.3 22:58:28 10° N 23:04:15 69° E 23:07:23 29° SSE
Cosmos 1626 3.8 23:05:11 20° ENE 23:05:11 20° ENE 23:07:30 10° NE
ERS-1 Rocket 3.9 23:01:44 14° SSW 23:05:49 43° W 23:10:37 10° NNW
Landsat 7 4.2 23:04:12 31° SE 23:06:02 48° ENE 23:10:36 10° N
Cosmos 2263 Rocket 2.7 23:04:26 30° SE 23:06:04 36° ESE 23:11:07 10° NE
Cosmos 2016 Rocket 4.0 23:02:12 10° N 23:08:28 84° W 23:12:32 23° S
Cosmos 1300 2.7 23:05:36 10° N 23:09:25 65° E 23:10:18 47° SE
Meteor 2-10 4.3 23:03:51 10° N 23:09:26 64° E 23:12:05 32° SSE
Cosmos 1328 3.7 23:09:20 38° S 23:10:47 75° E 23:14:49 10° N
Cosmos 1726 2.0 23:08:04 10° N 23:11:45 85° W 23:12:45 46° S
H-2A R/B 2.1 23:10:15 31° SSE 23:12:54 82° ENE 23:18:20 10° N
ATLAS 5 CENTAUR R/B 4.1 23:09:06 10° WSW 23:13:02 26° NW 23:17:16 10° NNE
CARTOSAT-1 4.3 23:12:29 32° ESE 23:13:30 37° ENE 23:17:29 10° N
Sakura Rocket 4.5 23:10:29 10° WSW 23:17:16 35° S 23:18:33 32° SSE
Terra 2.3 23:19:38 36° ESE 23:20:58 47° ENE 23:25:32 10° N
USA 245 4.2 23:24:12 29° SW 23:25:12 36° W 23:28:50 10° NNW
Cosmos 1328 Rocket 3.5 23:23:18 10° N 23:27:38 77° W 23:28:53 45° S
SL-08 RB Rocket 4.4 23:28:02 28° SSW 23:30:03 47° W 23:34:31 10° NNW
CZ-4B R/B 4.3 23:27:15 10° NNE 23:32:00 34° E 23:32:20 33° ESE
Cosmos 1515 Rocket 3.4 23:28:04 10° N 23:32:25 84° E 23:33:17 57° SSE
SL-19 R/B 4.3 23:27:32 10° NNE 23:32:48 55° ESE 23:34:17 42° SSE
Cosmos 2233 Rocket 4.0 23:27:12 10° N 23:33:23 66° E 23:35:40 39° SSE
Cosmos 332 Rocket 3.9 23:28:43 10° NNW 23:33:36 70° WSW 23:35:08 43° S
Cosmos 1603 3.8 23:28:02 10° NNW 23:33:39 66° WSW 23:35:50 37° S
H-2A R/B 2.4 23:34:10 45° E 23:34:45 48° ENE 23:38:52 10° N
Cosmos 1743 Rocket 3.8 23:33:40 34° SSW 23:35:24 62° W 23:39:43 10° N
Cosmos 2228 Rocket 3.3 23:31:05 10° NNW 23:35:40 70° W 23:37:01 44° SSW
Cosmos 1151 Rocket 2.9 23:32:42 10° N 23:37:05 72° E 23:37:42 61° SE
Delta 2 Rocket 4.2 23:35:18 10° WSW 23:40:55 52° SSE 23:41:58 46° SE
IGS 5A 3.3 23:41:12 67° SE 23:41:36 74° ENE 23:45:46 10° N
Cosmos 1455 3.3 23:39:33 10° NNE 23:42:40 32° ENE 23:42:40 32° ENE
Cosmos 1356 3.5 23:44:50 73° NNW 23:44:50 73° NNW 23:48:06 10° N
Cosmos 304 Rocket 4.5 23:42:45 10° N 23:47:14 38° ENE 23:47:54 36° E
ERBS 2.9 23:44:17 10° NW 23:47:11 54° N 23:47:11 54° N
Spot 4 4.3 23:47:15 42° E 23:47:59 45° ENE 23:52:38 10° N
Cosmos 1943 3.1 23:44:12 10° NNW 23:49:52 83° ENE 23:51:21 51° SSE
SL-16 R/B 4.5 23:46:51 10° WNW 23:49:54 15° W 23:52:58 10° SW
DMSP B5D2-2 4.4 23:45:48 10° N 23:50:57 61° WNW 23:53:40 28° SW
Cosmos 1447 Rocket 4.5 23:49:21 35° S 23:52:15 85° W 23:58:38 10° N
Cosmos 1354 Rocket 3.9 23:51:22 56° SSE 23:52:18 69° ESE 23:57:30 10° NNE
